Simultaneous Nadir Overpasses (SNOs) Predictions

Prediction of SNOs between METOP-B and NOAA-19 Satellite Orbit:

Table of predicted SNOs for the next 14.0 days since TLE Epoch: 12/8/2012
Index Date (METOP-B) Time (METOP-B) METOP-B Lat,Lon Date (NOAA-19) Time (NOAA-19) NOAA-19 Lat,Lon Distance(km) Time Diff (sec)
1 12/15/2012 22:14:04 73.81,-159.15 12/15/2012 22:12:57 73.80,-161.94 86.41 67
2 12/15/2012 23:04:59 -73.20, 6.77 12/15/2012 23:03:44 -73.21, 6.71 2.41 75
3 12/15/2012 23:55:39 73.14, 173.98 12/15/2012 23:54:49 73.17, 174.03 3.25 50
4 12/16/2012 00:46:21 -73.18, -18.61 12/16/2012 00:45:48 -73.17, -18.72 3.76 33
5 12/16/2012 01:37:01 73.12, 148.60 12/16/2012 01:36:53 73.12, 148.61 0.14 8
6 12/16/2012 02:27:44 -73.11, -44.10 12/16/2012 02:27:52 -73.13, -44.14 1.98 8
7 12/16/2012 03:18:23
